Regional Weather Roundup
Issued by NWS

Home | Current Version | Previous Version | Text Only | Print | Product List | Glossary Off
Versions: 1 2 3 4 5 6 7 8 9 10 11 12 13 14 15 16 17 18 19 20 21 22 23 24 25 26 27 28 29 30 31 32 33 34 35 36 37 38 39 40 41 42 43 44 45 46 47 48 49 50

000
ASUS43 KMPX 201110
RWRMN
WEATHER ROUNDUP FOR MINNESOTA
NATIONAL WEATHER SERVICE TWIN CITIES/CHANHASSEN MN
500 AM CST TUE FEB 20 2018


NOTE: "FAIR" INDICATES FEW OR NO CLOUDS BELOW 12,000 FEET WITH NO
SIGNIFICANT WEATHER AND/OR OBSTRUCTIONS TO VISIBILITY. N/A MEANS
CURRENT SKY AND/OR WEATHER CONDITIONS ARE NOT AVAILABLE.

MNZ060>063-068>070-201200-
   Twin Cities Metro

CITY           SKY/WX    TMP DP  RH WIND       PRES   REMARKS
TWIN CITIES    LGTSLEET  20  19  96 NW9       29.86R FOG     WCI   9
ST PAUL        LGT SNOW  21  19  92 NW9       29.86S FOG     WCI  11
CRYSTAL        CLOUDY    20  16  84 NW8       29.86S WCI  10
BLAINE         CLOUDY    21  19  93 NW8       29.85S WCI  12
LAKEVILLE      LGT SNOW  19  19 100 NW6       29.83S WCI  11
EDEN PRAIRIE   CLOUDY    20  16  84 N13       29.83S WCI   7
SOUTH ST PAUL  CLOUDY    21  19  91 N5        29.85R FOG     WCI  15
LAKE ELMO      LGT SNOW  21  19  93 CALM      29.86R VSB 1
$$
MNZ001>005-007-008-013>017-022>024-027-028-201200-
   Northwest Minnesota

CITY           SKY/WX    TMP DP  RH WIND       PRES   REMARKS
BEMIDJI        LGT SNOW   5   1  85 N5        29.98R WCI  -4
HALLOCK        MOCLDY     3   0  85 NW9       30.15R WCI -11
WARROAD        LGT SNOW   3   0  85 NE7       30.07R WCI  -9
THIEF RVR FALL LGT SNOW   4   0  83 N10       30.08R FOG     WCI -11
CROOKSTON      LGT SNOW   7   1  78 N12       30.11R WCI  -9
FOSSTON        LGT SNOW   3   0  85 N10       30.03R WCI -12
DETROIT LAKES  LGT SNOW   9   5  85 N9        29.95F WCI  -5
MOORHEAD       LGT SNOW   3   0  85 N22G28    29.99F WCI -19
PARK RAPIDS    LGT SNOW   7   2  80 N9        29.91F VSB 3/4 WCI  -7
MAHNOMEN       LGT SNOW   6   2  86 N14       29.98F WCI -12
$$
MNZ006-009>011-018-025>026-201200-
   North Central Minnesota

CITY           SKY/WX    TMP DP  RH WIND       PRES   REMARKS
BAUDETTE       LGT SNOW   4   0  83 N7        30.03R FOG     WCI  -8
FLAG ISLAND    LGT SNOW   3  -2  78 NE9       30.07R WCI -11
INTL FALLS     LGT SNOW   4   0  83 N7        30.00R VSB 1   WCI  -8
WASKISH        LGT SNOW   5   1  85 N5        30.02R WCI  -4
BIG FORK       LGT SNOW   5   1  85 NE3       29.97R VSB 3/4
LONGVILLE      LGT SNOW   7   3  85 N6        29.93F VSB 1   WCI  -3
GRAND RAPIDS   LGT SNOW   6   2  83 N9        29.97R FOG     WCI  -8
CRANE LAKE     SNOW       3   0  85 CALM      30.01R VSB 1/2
ORR            LGT SNOW   3  -2  78 CALM      29.94R
COOK           LGT SNOW   3   0  85 N3        29.95R VSB 1
WALKER         LGT SNOW   6   1  83 N7        29.95F VSB 1   WCI  -6
$$
MNZ012-019>021-037-201200-
   Northeast Minnesota

CITY           SKY/WX    TMP DP  RH WIND       PRES   REMARKS
DULUTH         LGT SNOW  13   9  84 NE8       29.85R VSB 1   WCI   2
ELY            LGT SNOW   3   0  85 N5        29.92S WCI  -6
HIBBING        LGT SNOW   4   1  88 N8        29.92R VSB 3/4 WCI  -9
EVELETH        LGT SNOW N/A N/A N/A N8        29.91R
DULUTH HARBOR  LGT SNOW  21  19  93 NE20G30   29.89F VSB 1   WCI   6
TWO HARBORS    LGT SNOW  16  10  79 N8        29.87R WCI   5
GRAND MARAIS     N/A     11   3  70 NE9G16    29.95F WCI  -2
G MARAIS ARPRT LGT SNOW   3  -2  78 N10       29.85F WCI -12
$$
MNZ029>031-032-039>041-046>048-054>057-064-201200-
   West Central Minnesota

CITY           SKY/WX    TMP DP  RH WIND       PRES   REMARKS
FERGUS FALLS   FLURRIES   9   3  78 N8        29.97S WCI  -4
WHEATON        CLOUDY     7   1  78 N13G18    29.98F WCI  -9
MORRIS         LGT SNOW  10   7  85 N12       29.93R WCI  -4
ALEXANDRIA     LGT SNOW   9   5  84 N10       29.90R FOG     WCI  -5
ELBOW LAKE     LGT SNOW   8   6  89 N8        29.95S WCI  -4
WADENA         LGT SNOW   7   3  85 N9        29.90F WCI  -7
GLENWOOD       LGT SNOW   9   7  92 N10       29.89F WCI  -6
APPLETON       LGT SNOW  10   7  85 N14       29.94R WCI  -5
BENSON         LGT SNOW  10   9  92 N9        29.92F WCI  -2
ORTONVILLE     FLURRIES   7   1  78 N16       29.93F WCI -11
MADISON        LGT SNOW  10   7  85 NW17      29.95S WCI  -7
WILLMAR        CLOUDY    12  10  92 N8        29.91R WCI   1
$$
MNZ033>034-036-042>043-049>051-058-059-201200-
   Central Minnesota

CITY           SKY/WX    TMP DP  RH WIND       PRES   REMARKS
ST CLOUD       LGT SNOW  12   9  87 N13       29.86F FOG     WCI  -3
SAUK CENTRE    LGT SNOW  10   7  85 N12       29.89F WCI  -4
PAYNESVILLE    LGT SNOW  12  10  91 N8        29.87F WCI   1
AITKIN         LGT SNOW   7   3  85 N8        29.90F WCI  -6
PINE RIVER     LGT SNOW   7   3  85 N5        29.96F WCI  -2
BRAINERD       LGT SNOW  10   5  80 N12       29.91F VSB 3/4 WCI  -5
STAPLES        LGT SNOW   7   3  85 N8        29.90F WCI  -6
LONG PRAIRIE   LGT SNOW  10   7  85 NW10      29.88F WCI  -3
LITTLE FALLS   LGT SNOW  12   5  73 N5        29.89  WCI   4
LITCHFIELD     LGT SNOW  14  12  92 N7        29.88F WCI   4
BUFFALO        LGT SNOW  16  14  90 N7        29.87F WCI   7
MAPLE LAKE     LGT SNOW  15  13  92 N10       29.87F WCI   3
HUTCHINSON     LGT SNOW  16  13  89 N13       29.87F WCI   2
$$
MNZ037-044-045-052-053-201200-
   East Central Minnesota

CITY           SKY/WX    TMP DP  RH WIND       PRES   REMARKS
PRINCETON      LGT SNOW  16  12  86 NW8       29.88F WCI   5
MORA           LGT SNOW  18  14  86 N5        29.90R VSB 3/4 WCI  11
CAMBRIDGE      LGT SNOW  19  14  79 NW6       29.88R WCI  11
RUSH CITY      LGT SNOW  19  16  90 NW6       29.89R WCI  11
MOOSE LAKE     SNOW      14  10  85 N8        29.90R VSB 1/2 WCI   3
HINCKLEY       LGT SNOW  19  18  93 N7        29.87R WCI  10
CLOQUET        LGT SNOW  10   7  85 NW10      29.89R VSB 3/4 WCI  -3
MCGREGOR       CLOUDY    10   9  92 N9        29.93R VSB 3/4 WCI  -2
$$
MNZ071>073-080-081-089-090-097-098-201200-
   Southwest Minnesota

CITY           SKY/WX    TMP DP  RH WIND       PRES   REMARKS
MONTEVIDEO     FLURRIES  10   9  92 N10       29.90F WCI  -3
GRANITE FALLS  FLURRIES  14  11  87 NW10      29.91S WCI   1
CANBY          LGT SNOW   8   5  86 W15       29.94F WCI  -9
MARSHALL       LGT SNOW   8   5  87 NW14      29.89F FOG     WCI  -8
REDWOOD FALLS  LGT SNOW  13  11  92 N7        29.87F FOG     WCI   3
OLIVIA         LGT SNOW  16  12  86 N8        29.87F WCI   5
PIPESTONE        N/A      7 N/A N/A N7        29.86S WCI  -5
WINDOM         LGT SNOW  12   1  62 CALM      29.84R
WORTHINGTON    FLURRIES  10   7  87 N14       29.85R WCI  -6
JACKSON        CLOUDY    14  10  85 NW10      29.86R WCI   1
TRACY          LGT SNOW  10   7  91 NW9       29.85F WCI  -4
SLAYTON        LGT SNOW   8   6  89 NW7       29.85R WCI  -3
$$
MNZ065>067-074>077-082>085-091>093-201200-
   South Central Minnesota

CITY           SKY/WX    TMP DP  RH WIND       PRES   REMARKS
MANKATO        FLURRIES  18  16  92 NW9       29.85  WCI   7
NEW ULM        CLOUDY    16  12  86 N10       29.85F WCI   3
ST JAMES       FLURRIES  16  12  86 NW7       29.89R WCI   6
FAIRMONT       FLURRIES  17  15  92 NW14      29.86R WCI   3
GLENCOE        CLOUDY    18  15  90 N12       29.85F FOG     WCI   5
FARIBAULT      CLOUDY    19  18  93 CALM      29.83S
OWATONNA       CLOUDY    21  19  93 CALM      29.82R
WASECA         CLOUDY    21  19  93 NW3       29.86R
ALBERT LEA     CLOUDY    21  19  93 CALM      29.81S
$$
MNZ078>079-086>088-094>096-201200-
   Southeast Minnesota

CITY           SKY/WX    TMP DP  RH WIND       PRES   REMARKS
ROCHESTER      CLOUDY    26  25  96 W8        29.80R WCI  18
RED WING       CLOUDY    23  18  80 N3        29.83R
STANTON        CLOUDY    21  19  91 N6        29.81S WCI  14
DODGE CENTER   CLOUDY    21  21 100 CALM      29.80R
WINONA         CLOUDY    30  28  93 CALM      29.80R
AUSTIN         CLOUDY    27  25  93 NW3       29.79R
PRESTON        CLOUDY    29  28  95 CALM      29.79R FOG
$$
ABBREVIATIONS USED IN REMARKS
   TC - TEMPERATURES IN CELSIUS
  WCI - WIND CHILL INDEX
   HX - HEAT INDEX
  VSB - VISIBILITY
$$




USA.gov is the U.S. government's official web portal to all federal, state and local government web resources and services.